{"data":{"norad_id":52585,"epoch":"2026-09-20T04:57:28.055808Z","epoch_age_seconds":88607,"freshness":"FRESH","line1":"1 52585U 22051BB  26263.20657472 -.00000713  00000+0 -26738-4 0  9999","line2":"2 52585  53.1654 325.2029 0000539  71.8228 288.2823 15.08830934240953","mean_motion":15.08830934,"eccentricity":5.39e-5,"inclination_deg":53.1654,"raan_deg":325.2029,"arg_perigee_deg":71.8228,"mean_anomaly_deg":288.2823,"bstar":-2.6738e-5,"rev_number":24095,"period_min":95.438128126289,"perigee_km":539.39822499135,"apogee_km":540.14397548455,"semimajor_km":6917.9081002379,"source":"CELESTRAK","updated_at":"2026-09-20T09:00:40.066489Z"}}